Visibility
15.0 15.0 15.0 15.0 9.7 15.0 15.0 15.0 1.0 15.0 15.0 0.1 7.5 0.0 15.0 15.0 15.0 15.0 15.0 15.0 15.0 15.0 15.0 15.0 15.0 15.0 15.0 15.0 15.0 15.0 15.0 15.0 15.0 15.0 15.0 15.0 15.0 15.0 15.0 15.0 14.7 0.3 0.2 11.3
15.0 15.0 15.0 15.0 15.0 15.0 15.0 14.2 13.2 15.0 15.0 0.1 0.0 8.8 15.0 15.0 15.0 15.0 15.0 15.0 15.0 15.0 15.0 15.0 15.0 15.0 15.0 15.0 15.0 15.0 15.0 15.0 15.0 15.0 15.0 15.0 15.0 15.0 15.0 15.0 15.0 15.0 3.4 11.8
15.0 15.0 15.0 15.0 15.0 15.0 15.0 6.9 0.0 7.5 1.6 6.5 0.0 0.0 0.0 0.0 15.0 15.0 15.0 15.0 15.0 15.0 15.0 15.0 15.0 15.0 15.0 15.0 15.0 15.0 15.0 15.0 15.0 15.0 15.0 15.0 15.0 15.0 15.0 15.0 15.0 15.0 15.0 15.0
15.0 15.0 15.0 15.0 15.0 15.0 15.0 11.7 0.0 0.2 4.2 1.4 0.0 0.0 0.0 14.2 11.6 15.0 15.0 11.7 15.0 2.6 7.3 8.4 15.0 15.0 15.0 15.0 15.0 15.0 15.0 15.0 15.0 15.0 15.0 15.0 15.0 15.0 15.0 15.0 15.0 10.8 15.0 15.0
15.0 15.0 15.0 15.0 15.0 15.0 15.0 15.0 0.1 0.1 0.0 0.0 0.1 0.1 0.0 0.8 14.7 15.0 15.0 15.0 15.0 2.3 0.3 0.0 0.0 0.0 0.0 15.0 15.0 15.0 14.8 2.5 0.5 4.5 15.0 15.0 15.0 15.0 15.0 15.0 15.0 15.0 15.0 15.0
15.0 15.0 15.0 15.0 15.0 15.0 15.0 15.0 15.0 4.0 11.6 0.4 1.4 1.8 0.2 0.0 0.0 9.4 15.0 15.0 10.9 9.1 15.0 3.3 5.0 15.0 15.0 15.0 15.0 15.0 15.0 15.0 0.4 3.3 15.0 15.0 15.0 15.0 15.0 15.0 15.0 15.0 15.0 15.0
15.0 15.0 15.0 15.0 15.0 15.0 15.0 4.1 15.0 8.6 1.8 0.1 5.7 6.7 0.0 0.2 0.0 0.0 8.4 0.1 0.0 10.7 15.0 15.0 15.0 15.0 15.0 15.0 15.0 15.0 15.0 15.0 15.0 13.9 15.0 0.8 15.0 15.0 15.0 15.0 15.0 15.0 15.0 15.0
15.0 15.0 15.0 15.0 15.0 15.0 15.0 15.0 15.0 15.0 4.9 13.0 15.0 15.0 15.0 15.0 15.0 15.0 15.0 15.0 15.0 15.0 15.0 15.0 15.0 15.0 15.0 15.0 15.0 15.0 15.0 15.0 12.9 7.5 14.9 15.0 15.0 15.0 15.0 15.0 15.0 15.0 15.0 15.0
15.0 15.0 15.0 15.0 15.0 15.0 15.0 15.0 15.0 15.0 10.4 15.0 15.0 15.0 15.0 15.0 15.0 15.0 15.0 15.0 15.0 15.0 15.0 15.0 15.0 15.0 15.0 15.0 15.0 15.0 15.0 10.9 14.1 0.6 1.5 14.0 15.0 15.0 15.0 15.0 15.0 15.0 15.0 15.0
15.0 15.0 15.0 15.0 14.8 15.0 15.0 15.0 15.0 15.0 15.0 15.0 15.0 15.0 15.0 15.0 15.0 15.0 15.0 15.0 15.0 15.0 15.0 15.0 9.7 15.0 15.0 15.0 15.0 11.3 0.9 0.3 0.2 2.3 0.6 13.4 15.0 15.0 15.0 15.0 15.0 15.0 15.0 15.0
15.0 15.0 15.0 15.0 15.0 15.0 15.0 15.0 15.0 15.0 15.0 15.0 15.0 15.0 15.0 15.0 15.0 14.9 15.0 15.0 15.0 15.0 3.2 8.8 15.0 9.8 15.0 15.0 15.0 15.0 15.0 5.3 12.5 14.9 1.6 10.1 15.0 15.0 15.0 15.0 15.0 15.0 15.0 15.0
15.0 15.0 15.0 15.0 15.0 15.0 15.0 15.0 15.0 14.9 15.0 15.0 15.0 15.0 15.0 15.0 15.0 15.0 15.0 15.0 15.0 15.0 0.7 1.2 0.4 1.4 2.7 15.0 15.0 15.0 15.0 15.0 15.0 14.9 15.0 15.0 15.0 15.0 15.0 15.0 15.0 15.0 15.0 15.0
15.0 15.0 15.0 8.4 13.0 10.6 14.2 15.0 4.2 13.6 0.1 12.6 0.2 15.0 15.0 15.0 15.0 15.0 15.0 15.0 15.0 15.0 15.0 15.0 14.7 5.2 15.0 4.6 10.7 15.0 15.0 15.0 15.0 14.4 15.0 15.0 15.0 15.0 15.0 15.0 15.0 15.0 15.0 15.0
15.0 15.0 15.0 15.0 15.0 14.2 8.8 13.2 15.0 15.0 15.0 6.0 15.0 15.0 15.0 15.0 15.0 15.0 15.0 15.0 15.0 15.0 15.0 10.5 6.7 3.7 15.0 15.0 15.0 15.0 15.0 15.0 15.0 15.0 15.0 15.0 15.0 15.0 15.0 15.0 15.0 15.0 15.0 15.0
15.0 15.0 15.0 15.0 14.5 9.5 15.0 15.0 11.6 15.0 11.8 11.0 15.0 15.0 15.0 15.0 15.0 15.0 15.0 15.0 15.0 14.0 7.9 0.9 0.5 15.0 13.5 15.0 15.0 15.0 15.0 15.0 15.0 15.0 15.0 15.0 15.0 15.0 15.0 15.0 15.0 15.0 15.0 15.0
15.0 15.0 15.0 15.0 15.0 10.9 15.0 15.0 15.0 15.0 15.0 0.1 0.2 14.9 15.0 15.0 15.0 15.0 15.0 15.0 15.0 14.7 1.2 6.1 6.3 15.0 14.9 5.2 15.0 15.0 15.0 15.0 15.0 15.0 15.0 15.0 15.0 15.0 15.0 15.0 15.0 15.0 15.0 15.0
15.0 15.0 13.3 15.0 6.4 2.8 15.0 15.0 15.0 15.0 15.0 0.2 0.2 14.4 15.0 15.0 15.0 15.0 15.0 15.0 15.0 15.0 2.1 0.6 15.0 15.0 10.7 0.8 0.2 15.0 15.0 15.0 15.0 15.0 15.0 15.0 15.0 15.0 15.0 15.0 15.0 15.0 15.0 15.0
15.0 15.0 15.0 11.3 7.8 15.0 6.6 10.8 9.2 15.0 0.0 0.0 0.1 7.6 15.0 15.0 7.7 3.3 14.5 2.4 0.6 8.0 10.6 11.9 15.0 8.7 8.7 0.2 15.0 15.0 15.0 15.0 15.0 15.0 15.0 15.0 15.0 15.0 15.0 15.0 15.0 15.0 15.0 15.0
6.7 10.5 12.0 15.0 14.2 15.0 15.0 15.0 7.9 8.4 0.1 0.2 3.9 11.6 15.0 15.0 15.0 11.5 7.0 13.4 0.8 1.8 0.1 1.0 8.1 3.2 0.3 14.0 15.0 15.0 15.0 15.0 15.0 15.0 15.0 15.0 15.0 15.0 15.0 15.0 15.0 15.0 15.0 15.0
15.0 15.0 15.0 10.2 15.0 15.0 15.0 15.0 10.8 14.8 5.8 0.1 0.4 14.7 7.1 14.9 14.7 12.7 14.7 12.6 11.5 3.1 15.0 14.8 0.1 2.5 15.0 15.0 15.0 15.0 15.0 15.0 15.0 15.0 15.0 15.0 15.0 15.0 15.0 15.0 15.0 15.0 15.0 15.0
13.8 15.0 1.1 15.0 15.0 15.0 12.4 9.2 1.6 0.4 0.7 4.9 10.7 15.0 12.2 12.9 0.1 0.1 5.0 15.0 15.0 2.2 15.0 9.4 5.9 14.3 11.3 15.0 15.0 15.0 15.0 15.0 15.0 15.0 15.0 15.0 15.0 15.0 15.0 15.0 15.0 15.0 15.0 15.0
13.4 8.9 15.0 15.0 11.5 2.7 9.3 2.0 15.0 2.2 9.9 13.7 0.6 1.8 12.9 15.0 0.2 0.1 1.5 9.4 1.0 0.3 6.1 0.1 1.0 11.9 15.0 15.0 15.0 15.0 15.0 15.0 15.0 15.0 15.0 15.0 15.0 12.3 15.0 15.0 15.0 15.0 15.0 15.0
0.4 0.0 0.1 0.9 10.9 0.4 0.7 3.7 15.0 5.5 8.7 13.3 15.0 5.7 12.7 4.6 0.1 0.1 0.2 0.1 5.8 4.7 0.1 7.1 15.0 15.0 15.0 15.0 15.0 15.0 15.0 15.0 15.0 15.0 15.0 15.0 15.0 15.0 15.0 15.0 15.0 15.0 15.0 15.0
0.1 0.6 0.1 13.5 1.1 4.9 15.0 15.0 15.0 15.0 7.8 15.0 14.7 9.6 15.0 15.0 0.2 4.7 0.1 6.6 0.3 0.1 0.1 1.9 13.6 15.0 15.0 15.0 15.0 15.0 15.0 15.0 15.0 15.0 15.0 15.0 15.0 15.0 15.0 15.0 15.0 15.0 15.0 15.0
0.1 0.2 4.1 2.8 15.0 10.9 15.0 12.0 13.0 15.0 9.2 7.3 10.6 5.0 5.5 1.1 0.1 0.1 0.2 0.1 0.1 0.1 0.1 0.2 7.9 12.3 15.0 15.0 15.0 15.0 15.0 15.0 15.0 15.0 15.0 15.0 15.0 15.0 15.0 15.0 15.0 15.0 15.0 15.0
0.1 0.8 0.5 5.1 3.9 14.1 4.3 2.9 13.8 15.0 7.9 13.3 0.9 0.5 0.5 0.3 0.1 0.1 0.4 0.1 0.1 0.1 0.1 0.8 0.7 0.4 0.1 3.1 15.0 15.0 15.0 15.0 15.0 15.0 15.0 15.0 15.0 15.0 15.0 15.0 15.0 15.0 15.0 15.0
0.8 0.9 2.2 5.5 5.5 15.0 15.0 9.4 15.0 7.6 5.8 4.0 4.5 1.8 8.9 0.3 0.1 0.1 0.1 0.1 0.1 0.1 0.4 0.2 0.1 0.1 0.1 0.1 15.0 15.0 15.0 15.0 15.0 15.0 15.0 15.0 15.0 15.0 15.0 15.0 15.0 15.0 15.0 15.0